• En España
  • Lista de países
  • Para 7 días
  • Temperatura del agua
  • Mapa Satelital
  • El tiempo en el mapa
  • Informadores
  • user-avatar
    Iniciar sesión

    Tiempo cada hora Sao Joao da Talha

    Hoy, 19 Enero, Viernes

    Tiempo Temperatura Precipitaciones Viento Presión Humedad
    00:00 +10°C° 0 mm 7 mps 765 mmHg 89%
    01:00 +10°C° 0 mm 7 mps 765 mmHg 88%
    02:00 +10°C° 0 mm 7 mps 764 mmHg 88%
    03:00 +9°C° 0 mm 6 mps 764 mmHg 88%
    04:00 +9°C° 0 mm 6 mps 764 mmHg 88%
    05:00 +9°C° 0 mm 6 mps 764 mmHg 88%
    06:00 +9°C° 0 mm 6 mps 765 mmHg 85%
    07:00 +9°C° 0 mm 6 mps 765 mmHg 82%
    08:00 +9°C° 0 mm 6 mps 766 mmHg 80%
    09:00 +11°C° 0 mm 6 mps 766 mmHg 72%
    10:00 +14°C° 0 mm 6 mps 766 mmHg 65%
    11:00 +16°C° 0 mm 6 mps 767 mmHg 58%
    12:00 +17°C° 0 mm 6 mps 766 mmHg 57%
    13:00 +19°C° 0 mm 6 mps 766 mmHg 56%
    14:00 +19°C° 0 mm 6 mps 766 mmHg 55%
    15:00 +16°C° 0 mm 5 mps 766 mmHg 63%
    16:00 +14°C° 0 mm 5 mps 767 mmHg 72%
    17:00 +13°C° 0 mm 5 mps 767 mmHg 80%
    18:00 +12°C° 0 mm 5 mps 768 mmHg 83%
    19:00 +10°C° 0 mm 5 mps 768 mmHg 86%
    20:00 +9°C° 0 mm 5 mps 769 mmHg 88%
    21:00 +10°C° 0 mm 4 mps 769 mmHg 89%
    22:00 +8°C° 0 mm 4 mps 769 mmHg 90%
    23:00 +8°C° 0 mm 4 mps 769 mmHg 90%

    Mañana, 20 Enero, Sábado

    Tiempo Temperatura Precipitaciones Viento Presión Humedad
    00:00 +7°C° 0 mm 4 mps 770 mmHg 91%
    01:00 +7°C° 0 mm 4 mps 770 mmHg 91%
    02:00 +8°C° 0 mm 3 mps 770 mmHg 91%
    03:00 +8°C° 0 mm 3 mps 770 mmHg 92%
    04:00 +8°C° 0 mm 3 mps 770 mmHg 92%
    05:00 +7°C° 0 mm 3 mps 770 mmHg 92%
    06:00 +8°C° 0 mm 3 mps 770 mmHg 90%
    07:00 +8°C° 0 mm 3 mps 771 mmHg 89%
    08:00 +9°C° 0 mm 3 mps 771 mmHg 87%
    09:00 +11°C° 0 mm 3 mps 771 mmHg 77%
    10:00 +13°C° 0 mm 3 mps 771 mmHg 68%
    11:00 +16°C° 0 mm 3 mps 771 mmHg 58%
    12:00 +17°C° 0 mm 3 mps 771 mmHg 57%
    13:00 +17°C° 0 mm 3 mps 771 mmHg 56%
    14:00 +18°C° 0 mm 4 mps 770 mmHg 55%
    15:00 +15°C° 0 mm 4 mps 771 mmHg 63%
    16:00 +14°C° 0 mm 4 mps 771 mmHg 72%
    17:00 +12°C° 0 mm 4 mps 771 mmHg 80%
    18:00 +11°C° 0 mm 3 mps 772 mmHg 84%
    19:00 +11°C° 0 mm 3 mps 772 mmHg 87%
    20:00 +10°C° 0 mm 3 mps 772 mmHg 91%
    21:00 +10°C° 0 mm 3 mps 772 mmHg 92%
    22:00 +10°C° 0 mm 3 mps 772 mmHg 93%
    23:00 +10°C° 0 mm 3 mps 773 mmHg 94%

    Pasado mañana, 21 Enero, Domingo

    Tiempo Temperatura Precipitaciones Viento Presión Humedad
    00:00 +10°C° 0 mm 3 mps 772 mmHg 94%
    01:00 +10°C° 0 mm 3 mps 772 mmHg 95%
    02:00 +10°C° 0 mm 3 mps 772 mmHg 96%
    03:00 +10°C° 0 mm 2 mps 772 mmHg 96%
    04:00 +10°C° 0 mm 2 mps 772 mmHg 96%
    05:00 +10°C° 0 mm 2 mps 772 mmHg 97%
    06:00 +10°C° 0 mm 2 mps 772 mmHg 96%
    07:00 +12°C° 0 mm 2 mps 772 mmHg 96%
    08:00 +12°C° 0 mm 2 mps 772 mmHg 96%
    09:00 +14°C° 0 mm 2 mps 772 mmHg 87%
    10:00 +16°C° 0 mm 2 mps 772 mmHg 79%
    11:00 +18°C° 0 mm 2 mps 772 mmHg 70%
    12:00 +18°C° 0 mm 3 mps 772 mmHg 68%
    13:00 +19°C° 0 mm 3 mps 771 mmHg 66%
    14:00 +19°C° 0 mm 4 mps 771 mmHg 63%
    15:00 +18°C° 0 mm 3 mps 771 mmHg 71%
    16:00 +16°C° 0 mm 3 mps 771 mmHg 78%
    17:00 +13°C° 0 mm 3 mps 771 mmHg 85%
    18:00 +13°C° 0 mm 3 mps 771 mmHg 88%
    19:00 +12°C° 0 mm 3 mps 772 mmHg 91%
    20:00 +11°C° 0 mm 3 mps 772 mmHg 93%
    21:00 +11°C° 0 mm 3 mps 772 mmHg 94%
    22:00 +11°C° 0 mm 3 mps 772 mmHg 94%
    23:00 +10°C° 0 mm 3 mps 772 mmHg 94%

    22 Enero, Lunes

    Tiempo Temperatura Precipitaciones Viento Presión Humedad
    00:00 +10°C° 0 mm 3 mps 771 mmHg 95%
    01:00 +10°C° 0 mm 3 mps 771 mmHg 95%
    02:00 +10°C° 0 mm 3 mps 771 mmHg 95%
    03:00 +9°C° 0 mm 3 mps 771 mmHg 95%
    04:00 +9°C° 0 mm 2 mps 771 mmHg 95%
    05:00 +9°C° 0 mm 2 mps 771 mmHg 94%
    06:00 +9°C° 0 mm 2 mps 771 mmHg 93%
    07:00 +10°C° 0 mm 2 mps 771 mmHg 91%
    08:00 +10°C° 0 mm 2 mps 771 mmHg 89%
    09:00 +13°C° 0 mm 2 mps 771 mmHg 80%
    10:00 +15°C° 0 mm 2 mps 771 mmHg 71%
    11:00 +17°C° 0 mm 2 mps 771 mmHg 62%
    12:00 +18°C° 0 mm 3 mps 771 mmHg 60%
    13:00 +19°C° 0 mm 3 mps 771 mmHg 58%
    14:00 +20°C° 0 mm 4 mps 770 mmHg 56%
    15:00 +18°C° 0 mm 4 mps 770 mmHg 63%
    16:00 +15°C° 0 mm 4 mps 770 mmHg 71%
    17:00 +13°C° 0 mm 4 mps 770 mmHg 78%
    18:00 +12°C° 0 mm 4 mps 771 mmHg 82%
    19:00 +11°C° 0 mm 4 mps 771 mmHg 85%
    20:00 +10°C° 0 mm 3 mps 771 mmHg 88%
    21:00 +10°C° 0 mm 3 mps 771 mmHg 88%
    22:00 +9°C° 0 mm 3 mps 771 mmHg 89%
    23:00 +9°C° 0 mm 3 mps 771 mmHg 89%

    23 Enero, Martes

    Tiempo Temperatura Precipitaciones Viento Presión Humedad
    00:00 +8°C° 0 mm 3 mps 771 mmHg 88%
    01:00 +8°C° 0 mm 3 mps 770 mmHg 87%
    02:00 +8°C° 0 mm 3 mps 770 mmHg 86%
    03:00 +7°C° 0 mm 3 mps 770 mmHg 85%
    04:00 +7°C° 0 mm 3 mps 770 mmHg 84%
    05:00 +7°C° 0 mm 3 mps 770 mmHg 83%
    06:00 +7°C° 0 mm 3 mps 770 mmHg 79%
    07:00 +8°C° 0 mm 3 mps 770 mmHg 76%
    08:00 +9°C° 0 mm 3 mps 770 mmHg 72%
    09:00 +11°C° 0 mm 3 mps 770 mmHg 64%
    10:00 +14°C° 0 mm 3 mps 770 mmHg 55%
    11:00 +17°C° 0 mm 3 mps 770 mmHg 46%
    12:00 +18°C° 0 mm 2 mps 769 mmHg 45%
    13:00 +19°C° 0 mm 2 mps 769 mmHg 43%
    14:00 +20°C° 0 mm 2 mps 768 mmHg 42%
    15:00 +18°C° 0 mm 2 mps 768 mmHg 50%
    16:00 +16°C° 0 mm 2 mps 768 mmHg 57%
    17:00 +14°C° 0 mm 2 mps 768 mmHg 65%
    18:00 +13°C° 0 mm 2 mps 768 mmHg 70%
    19:00 +12°C° 0 mm 2 mps 768 mmHg 76%
    20:00 +12°C° 0 mm 2 mps 768 mmHg 81%
    21:00 +10°C° 0 mm 2 mps 768 mmHg 82%
    22:00 +10°C° 0 mm 3 mps 768 mmHg 83%
    23:00 +9°C° 0 mm 3 mps 768 mmHg 84%

    24 Enero, Miércoles

    Tiempo Temperatura Precipitaciones Viento Presión Humedad
    00:00 +9°C° 0 mm 3 mps 767 mmHg 85%
    01:00 +9°C° 0 mm 3 mps 767 mmHg 85%
    02:00 +8°C° 0 mm 3 mps 767 mmHg 86%
    03:00 +8°C° 0 mm 3 mps 766 mmHg 86%
    04:00 +8°C° 0 mm 3 mps 766 mmHg 86%
    05:00 +8°C° 0 mm 3 mps 766 mmHg 86%
    06:00 +9°C° 0 mm 3 mps 766 mmHg 84%
    07:00 +9°C° 0 mm 3 mps 766 mmHg 81%
    08:00 +10°C° 0 mm 3 mps 767 mmHg 79%
    09:00 +12°C° 0 mm 3 mps 766 mmHg 71%
    10:00 +14°C° 0 mm 3 mps 766 mmHg 63%
    11:00 +17°C° 0 mm 3 mps 766 mmHg 56%
    12:00 +18°C° 0 mm 3 mps 766 mmHg 55%
    13:00 +18°C° 0 mm 3 mps 766 mmHg 55%
    14:00 +19°C° 0 mm 3 mps 765 mmHg 54%
    15:00 +17°C° 0 mm 3 mps 765 mmHg 62%
    16:00 +14°C° 0 mm 3 mps 765 mmHg 70%
    17:00 +14°C° 0 mm 2 mps 765 mmHg 78%
    18:00 +13°C° 0 mm 2 mps 766 mmHg 82%
    19:00 +13°C° 0 mm 2 mps 766 mmHg 87%
    20:00 +12°C° 0 mm 2 mps 766 mmHg 91%
    21:00 +12°C° 0 mm 2 mps 767 mmHg 92%
    22:00 +12°C° 0 mm 2 mps 767 mmHg 93%
    23:00 +12°C° 0 mm 2 mps 767 mmHg 94%
    Mostrar más